カタログに戻る

DELTA 1 DEB

運用中SSO
NORAD 7166·DEBRIS·🇺🇸 United States

打ち上げ Nov 6, 1973 から Vandenberg Space Force Base

Loading…

次のパス (今後24時間)

TLE

最新Source: Space-Track

元期: Sep 13, 2026, 23:20 UTC

1 07166U 73086EE  26256.97277437  .00000023  00000-0  50651-3 0  9996
2 07166 102.2438 263.8671 0014743  99.4886 319.3000 12.41505634391637

AllMySatでDELTA 1 DEBをリアルタイム追跡

Download on the App Store